User: anonymous
Location: Unspecified
(0.0000°N, 0.0000°E)
Time: 19:43:55
(UTC+02:00)
Language:

Milstar 3 - Orbit

View from above orbital plane
View from above orbital plane
View from above satellite
View from above satellite

Ground track
Ground track

The orbit data is extracted from the following two-line orbital elements,

1 25724U 99023A   14244.16352975 0.00000000  00000-0  00000-0 0    09
2 25724  28.2146 206.6582 2127299 293.5787  66.4208  9.37441194    05
Epoch (UTC): 01 September 2014 03:55:28
Eccentricity: 0.2127299
inclination: 28.2146°
perigee height: 1102 km
apogee height: 5144 km
right ascension of ascending node: 206.6582°
argument of perigee: 293.5787°
revolutions per day: 9.37441194
mean anomaly at epoch: 66.4208°
orbit number at epoch: 0

The dashed part of the orbit path shows where the satellite is in the earth's shadow,  

DLR